Location: Unspecified
(0.0000°N, 0.0000°E)
Time: 12:47:48
(UTC+00:00)

Vanguard 2 - Pass Details

Date: 19 September 2019
Orbit: 554 x 2937 km, 32.9° (Epoch: 13 October)

Event Time Altitude Azimuth Distance (km) Brightness Sun altitude
Rises 13:30:54 0° 269° (W) 2,900 10.9 65.7°
Reaches altitude 10° 13:33:29 10° 251° (WSW) 2,165 10.4 65.1°
Maximum altitude 13:37:08 20° 203° (SSW) 1,868 9.9 64.1°
Drops below altitude 10° 13:41:57 10° 158° (SSE) 2,955 10.5 62.9°
Sets 13:46:18 0° 143° (SE) 4,386 11.2 61.9°
